Troy, MI

8:41 PM EDT on March 30, 2017 (GMT -0400)
Troy

Weather History for KVLL - January, 2013

Change the Weather History Date:

Sunday, January 13, 2013

  Actual Average (KDET) Record (KDET)
Temperature  
Mean Temperature 44 °F -  
Max Temperature 51 °F 30 °F 61 °F (1950)
Min Temperature 35 °F 18 °F 0 °F (1999)
Degree Days  
Heating Degree Days 22    
Moisture  
Dew Point 39 °F    
Average Humidity 86    
Maximum Humidity 94    
Minimum Humidity 78    
Precipitation  
Precipitation 0.00 in - - ()
Sea Level Pressure  
Sea Level Pressure 29.88 in    
Wind  
Wind Speed 8 mph (NW)    
Max Wind Speed 16 mph    
Max Gust Speed 24 mph    
Visibility 8 miles    
Events Rain , Snow    
Averages and records for this station are not official NWS values.
T = Trace of Precipitation, MM = Missing Value Source: NWS Daily Summary

Daily Weather History Graph

Daily Weather History Graph

Search for Another Location

Airport or City:

Trip Planner

Search our weather history database for the weather conditions in past years. The results will help you decide how hot, cold, wet, or windy it might be!

Date:

Astronomy

Jan. 13, 2013 Rise Set
Actual Time 8:00 AM EST 5:22 PM EST
Civil Twilight 7:29 AM EST 5:54 PM EST
Nautical Twilight 6:54 AM EST 6:29 PM EST
Astronomical Twilight 6:20 AM EST 7:02 PM EST
Moon 8:54 AM EST (1/13) 8:04 PM EST (1/13)
Length of Visible Light 10h 24m
Length of Day
9h 22m
Waxing Crescent, 5% of the Moon is Illuminated
Jan 13
Waxing Crescent
Jan 18
First Quarter
Jan 26
Full
Feb 3
Last Quarter
Feb 10
New

Hourly Weather History & Observations

Time (EST) Temp. Windchill Dew Point Humidity Pressure Visibility Wind Dir Wind Speed Gust Speed Precip Events Conditions
12:14 AM 52.7 °F - 50.9 °F 94% 29.88 in 5.0 mi North 5.8 mph - N/A Rain Rain
12:35 AM 52.9 °F - 50.9 °F 93% 29.85 in 4.0 mi NNE 9.2 mph - N/A Rain Rain
12:55 AM 51.8 °F - 49.3 °F 91% 29.85 in 5.0 mi NNE 11.5 mph 16.1 mph N/A Rain Rain
1:14 AM 49.6 °F - 43.2 °F 78% 29.83 in 7.0 mi North 11.5 mph 20.7 mph N/A Rain Light Rain
1:35 AM 48.4 °F - 42.3 °F 79% 29.83 in 5.0 mi North 11.5 mph 17.3 mph N/A Rain Light Rain
1:54 AM 47.3 °F - 42.1 °F 82% 29.81 in 10.0 mi NNE 10.4 mph 16.1 mph N/A Rain Light Rain
2:14 AM 47.1 °F - 41.0 °F 79% 29.81 in 10.0 mi NNE 9.2 mph - N/A Rain Rain
2:35 AM 46.4 °F 41.9 °F 40.6 °F 80% 29.80 in 10.0 mi NNE 9.2 mph - N/A Rain Light Rain
2:54 AM 46.4 °F 42.4 °F 40.5 °F 80% 29.81 in 10.0 mi North 8.1 mph - N/A Rain Light Rain
3:14 AM 45.9 °F 41.7 °F 41.0 °F 83% 29.82 in 7.0 mi North 8.1 mph - N/A Rain Light Rain
3:35 AM 44.8 °F 39.9 °F 40.8 °F 86% 29.82 in 4.0 mi NNW 9.2 mph 17.3 mph N/A Rain Light Rain
3:54 AM 44.2 °F 38.0 °F 40.5 °F 87% 29.80 in 7.0 mi NNE 12.7 mph 18.4 mph N/A Rain Rain
4:14 AM 43.7 °F 39.1 °F 40.1 °F 87% 29.80 in 7.0 mi NNE 8.1 mph 16.1 mph N/A Rain Light Rain
4:35 AM 43.2 °F 38.4 °F 39.6 °F 87% 29.81 in 7.0 mi NNW 8.1 mph 16.1 mph N/A Rain Rain
4:54 AM 42.8 °F 35.1 °F 39.2 °F 87% 29.79 in 5.0 mi North 16.1 mph 19.6 mph N/A Rain Light Rain
5:15 AM 42.8 °F 37.0 °F 38.5 °F 85% 29.80 in 4.0 mi NNW 10.4 mph 16.1 mph N/A   Overcast
5:35 AM 42.1 °F 36.6 °F 38.7 °F 88% 29.77 in 10.0 mi NNE 9.2 mph 17.3 mph N/A Rain Light Rain
5:54 AM 42.3 °F 35.1 °F 39.2 °F 89% 29.71 in 10.0 mi NE 13.8 mph 20.7 mph N/A Rain Light Rain
6:15 AM 43.0 °F 38.8 °F 39.4 °F 87% 29.81 in 10.0 mi NW 6.9 mph - N/A   Mostly Cloudy
6:35 AM 43.0 °F 37.7 °F 39.2 °F 86% 29.79 in 10.0 mi North 9.2 mph - N/A   Overcast
6:54 AM 42.8 °F 38.6 °F 39.2 °F 87% 29.80 in 10.0 mi North 6.9 mph - N/A   Overcast
7:15 AM 42.4 °F 38.1 °F 38.7 °F 86% 29.82 in 10.0 mi North 6.9 mph - N/A   Overcast
7:34 AM 42.3 °F 39.4 °F 38.7 °F 87% 29.82 in 10.0 mi North 4.6 mph - N/A   Overcast
7:55 AM 42.4 °F 38.1 °F 38.7 °F 86% 29.85 in 10.0 mi NNW 6.9 mph - N/A   Overcast
8:14 AM 42.1 °F 39.2 °F 38.3 °F 86% 29.83 in 10.0 mi NNE 4.6 mph - N/A   Overcast
8:35 AM 42.1 °F 40.2 °F 38.3 °F 86% 29.85 in 10.0 mi North 3.5 mph - N/A   Overcast
8:55 AM 42.3 °F 38.6 °F 38.3 °F 86% 29.87 in 10.0 mi NNW 5.8 mph - N/A   Mostly Cloudy
9:14 AM 42.8 °F - 38.3 °F 84% 29.86 in 10.0 mi Calm Calm - N/A   Mostly Cloudy
9:35 AM 43.0 °F 41.3 °F 38.1 °F 83% 29.86 in 10.0 mi North 3.5 mph - N/A   Overcast
9:54 AM 43.2 °F - 38.3 °F 83% 29.87 in 10.0 mi Calm Calm - N/A   Overcast
10:14 AM 43.5 °F - 38.1 °F 81% 29.87 in 10.0 mi Calm Calm - N/A   Overcast
10:35 AM 43.5 °F - 37.9 °F 81% 29.87 in 10.0 mi Calm Calm - N/A   Overcast
10:54 AM 43.7 °F 42.1 °F 38.5 °F 82% 29.88 in 10.0 mi West 3.5 mph - N/A   Overcast
11:14 AM 43.9 °F 38.8 °F 39.0 °F 83% 29.90 in 10.0 mi West 9.2 mph - N/A   Overcast
11:35 AM 43.9 °F 39.3 °F 39.0 °F 83% 29.88 in 10.0 mi West 8.1 mph - N/A   Overcast
11:54 AM 43.7 °F 38.6 °F 39.0 °F 84% 29.89 in 10.0 mi WNW 9.2 mph - N/A   Overcast
12:15 PM 43.7 °F 38.6 °F 38.8 °F 83% 29.89 in 10.0 mi WNW 9.2 mph - N/A   Overcast
12:34 PM 43.2 °F 39.0 °F 39.2 °F 86% 29.88 in 7.0 mi WNW 6.9 mph - N/A   Overcast
12:55 PM 43.2 °F 39.0 °F 39.2 °F 86% 29.83 in 10.0 mi North 6.9 mph - N/A   Overcast
1:14 PM 43.3 °F 41.7 °F 39.2 °F 85% 29.87 in 10.0 mi West 3.5 mph - N/A   Overcast
1:34 PM 43.7 °F 40.3 °F 39.6 °F 85% 29.88 in 10.0 mi West 5.8 mph - N/A   Overcast
1:55 PM 43.5 °F 38.3 °F 39.7 °F 87% 29.89 in 10.0 mi West 9.2 mph - N/A   Overcast
2:14 PM 43.5 °F 39.4 °F 40.1 °F 88% 29.89 in 7.0 mi WNW 6.9 mph - N/A   Overcast
2:35 PM 43.0 °F 38.8 °F 39.4 °F 87% 29.87 in 10.0 mi NW 6.9 mph - N/A   Overcast
2:54 PM 43.0 °F 38.8 °F 39.0 °F 86% 29.86 in 10.0 mi NNW 6.9 mph - N/A   Overcast
3:14 PM 42.8 °F 39.3 °F 39.0 °F 86% 29.86 in 10.0 mi North 5.8 mph - N/A   Overcast
3:35 PM 43.3 °F 39.9 °F 39.2 °F 85% 29.90 in 10.0 mi NW 5.8 mph - N/A   Overcast
3:54 PM 43.0 °F 38.8 °F 38.8 °F 85% 29.91 in 10.0 mi NNW 6.9 mph - N/A   Overcast
4:15 PM 42.3 °F 37.3 °F 38.7 °F 87% 29.93 in 4.0 mi NNW 8.1 mph - N/A Rain Light Rain
4:35 PM 41.9 °F 37.5 °F 38.7 °F 88% 29.94 in 1.8 mi NW 6.9 mph - N/A Rain Light Rain
4:54 PM 41.2 °F 37.3 °F 38.3 °F 89% 29.93 in 2.5 mi NW 5.8 mph - N/A Rain Rain
5:15 PM 41.2 °F 37.3 °F 38.5 °F 90% 29.94 in 4.0 mi NW 5.8 mph - N/A Rain Light Rain
5:34 PM 41.0 °F 39.0 °F 38.1 °F 89% 29.94 in 5.0 mi NW 3.5 mph - N/A Rain Light Rain
5:54 PM 40.6 °F - 37.8 °F 89% 29.93 in 5.0 mi Calm Calm - N/A Rain Light Rain
6:15 PM 40.5 °F - 37.4 °F 89% 29.92 in 7.0 mi Calm Calm - N/A Rain Light Rain
6:34 PM 40.6 °F 38.6 °F 38.1 °F 91% 29.93 in 7.0 mi WSW 3.5 mph - N/A Rain Light Rain
6:54 PM 40.3 °F 38.2 °F 37.8 °F 91% 29.93 in 7.0 mi WSW 3.5 mph - N/A Rain Light Rain
7:14 PM 40.3 °F 38.2 °F 37.8 °F 91% 29.93 in 10.0 mi WSW 3.5 mph - N/A Rain Rain
7:34 PM 40.1 °F 36.9 °F 37.8 °F 91% 29.94 in 5.0 mi WSW 4.6 mph - N/A Rain Light Rain
7:55 PM 40.1 °F 36.9 °F 37.8 °F 91% 29.92 in 7.0 mi West 4.6 mph - N/A Rain Rain
8:14 PM 40.1 °F 34.7 °F 37.8 °F 91% 29.94 in 10.0 mi West 8.1 mph - N/A   Light Drizzle
8:34 PM 40.1 °F 33.6 °F 37.6 °F 91% 29.93 in 5.0 mi West 10.4 mph - N/A Rain Rain
8:54 PM 39.2 °F 32.0 °F 36.7 °F 91% 29.94 in 4.0 mi West 11.5 mph 18.4 mph N/A Rain Light Rain
9:14 PM 38.7 °F 32.4 °F 36.1 °F 91% 29.96 in 4.0 mi West 9.2 mph - N/A   Unknown
9:35 PM 38.3 °F 29.7 °F 35.6 °F 90% 29.97 in 4.0 mi West 15.0 mph 18.4 mph N/A   Unknown
9:54 PM 37.4 °F 28.5 °F 34.7 °F 90% 29.97 in 3.0 mi West 15.0 mph 20.7 mph N/A Snow Light Snow
10:14 PM 37.4 °F 31.4 °F 34.5 °F 89% 29.99 in 5.0 mi West 8.1 mph - N/A   Overcast
10:35 PM 36.7 °F 29.4 °F 33.3 °F 87% 29.98 in 10.0 mi WNW 10.4 mph 16.1 mph N/A   Overcast
10:54 PM 36.5 °F 29.2 °F 32.4 °F 85% 29.98 in 10.0 mi West 10.4 mph 17.3 mph N/A   Overcast
11:14 PM 36.5 °F 28.2 °F 32.2 °F 84% 30.01 in 10.0 mi WNW 12.7 mph 18.4 mph N/A   Overcast
11:35 PM 35.6 °F 26.6 °F 31.1 °F 84% 30.02 in 10.0 mi West 13.8 mph 24.2 mph N/A   Overcast
11:54 PM 35.2 °F 27.1 °F 30.7 °F 84% 30.03 in 10.0 mi West 11.5 mph - N/A   Overcast